{"data":{"norad_id":26407,"intl_designator":"2000-040A","name":"GPS BIIR-5  (PRN 22)","alt_names":[],"object_type":"PAYLOAD","status":"ACTIVE","operator":null,"country":"US","launch_date":"2000-07-16","launch_site_code":"AFETR","launch_vehicle":null,"mission":null,"orbit_class":"UNKNOWN","rcs_meters":5.24,"size_class":null,"mass_kg":null,"dimensions":null,"purposes":["nav"],"wikipedia_slug":null,"has_3d_model":false,"image_url":null,"decayed_at":null,"tle_current":{"epoch":"2026-05-24T14:22:37.969248Z","epoch_age_seconds":103718,"freshness":"FRESH","line1":"1 26407U 00040A   26144.59905057 -.00000014  00000+0  00000+0 0  9994","line2":"2 26407  54.8549 216.0993 0121341 302.3703 230.0563  2.00557498189474","mean_motion":2.00557498,"eccentricity":0.0121341,"inclination_deg":54.8549,"raan_deg":216.0993,"arg_perigee_deg":302.3703,"mean_anomaly_deg":230.0563,"bstar":0,"rev_number":18947,"period_min":717.99858612117,"perigee_km":19860.457445941,"apogee_km":20505.042361498,"semimajor_km":26560.886903719,"source":"CELESTRAK","updated_at":"2026-05-25T13:38:23.726447Z"}}}